Wind_Speed
18 25 25 27 29 31 29 28 27 26 24 26 26 26 30 29 29 30 31 32 32 33 33 33 34 34 34
19 24 25 28 30 30 28 30 28 26 25 27 28 28 28 29 27 28 29 31 32 33 33 34 35 36 36
20 23 26 29 29 28 28 28 27 26 28 27 29 28 26 26 28 29 30 31 31 32 32 32 33 34 34
21 21 23 26 24 26 25 25 28 28 31 27 27 25 28 31 29 29 30 29 30 29 30 31 32 33 34
18 18 19 22 22 24 24 28 29 31 29 24 26 29 35 31 30 30 29 27 30 33 34 34 33 33 34
17 16 22 23 25 23 25 24 10 23 15 30 29 29 33 33 31 30 32 33 32 33 32 32 32 32 33
22 23 25 28 30 29 23 21 26 31 30 30 28 30 33 32 31 33 34 33 31 29 30 30 29 29 29
24 28 28 25 23 24 27 28 29 29 27 21 26 29 31 31 34 33 32 29 27 27 28 31 33 33 33
21 21 22 25 27 25 24 21 22 26 26 24 17 24 28 33 28 24 25 26 29 34 34 32 31 31 33
21 28 28 27 22 19 23 21 21 16 8 8 21 20 9 19 21 25 34 32 32 32 32 32 31 31 30
27 28 28 26 25 25 25 24 24 24 33 25 21 25 18 18 19 26 32 36 35 33 31 31 30 29 29
21 21 22 29 30 29 31 30 29 34 39 33 21 25 26 24 19 28 29 32 32 34 31 31 28 27 28
19 23 24 29 31 32 31 32 32 34 34 32 31 32 29 28 26 33 31 29 33 33 31 31 33 30 27
22 25 25 25 27 27 27 27 27 32 31 28 27 30 30 30 29 31 34 19 30 32 31 31 32 30 30
21 21 23 24 26 26 25 26 23 27 33 34 30 28 31 32 30 33 31 30 31 30 27 31 32 31 31
22 22 23 25 27 27 24 23 24 27 28 31 30 29 28 26 29 34 34 30 34 31 29 26 31 30 31
23 25 26 25 25 26 25 24 25 26 28 30 27 22 12 14 28 23 26 28 32 30 28 27 27 35 32
Wind_Direction
291 310 313 317 320 323 318 314 313 304 301 299 298 295 295 293 291 289 287 287 285 284 283 282 279 277 276
295 308 309 316 316 315 312 311 305 304 301 300 298 296 295 293 291 290 290 288 287 286 284 281 280 277 275
293 304 310 316 315 310 306 300 304 299 300 300 299 297 296 295 293 292 292 289 286 284 282 279 278 276 274
297 302 306 314 306 302 303 303 300 302 301 298 297 296 296 295 294 292 292 289 286 282 279 278 277 275 274
294 298 302 304 304 304 295 303 304 304 301 300 303 301 296 297 294 292 290 289 287 284 281 278 276 274 272
297 293 299 300 301 298 298 304 306 312 310 301 300 292 291 292 292 289 287 287 286 284 281 279 277 275 270
299 294 293 298 300 298 294 293 295 296 302 295 295 287 290 290 288 287 286 287 286 285 282 280 278 275 272
295 296 297 298 296 300 299 297 295 294 295 287 294 284 289 289 289 288 287 285 284 283 282 282 281 276 273
296 295 297 297 299 301 297 302 296 295 294 282 289 297 296 287 292 290 283 283 283 284 284 282 278 277 274
304 306 310 310 305 295 293 285 290 304 312 286 301 307 302 289 289 289 288 287 286 285 283 281 278 277 272
314 314 316 313 308 307 304 288 282 275 282 294 292 290 277 288 286 287 286 285 284 284 283 280 278 272 270
314 308 304 306 313 312 310 303 293 282 297 287 274 277 279 284 289 292 287 285 283 280 281 282 278 271 268
307 302 303 307 313 312 313 310 303 300 296 292 277 276 274 275 280 285 292 291 286 280 279 279 279 275 270
303 304 307 307 304 306 301 303 301 299 301 297 288 280 272 272 274 279 282 278 284 281 278 277 274 268 263
306 306 305 304 302 306 302 301 294 299 302 305 302 290 276 271 276 276 276 279 278 276 277 276 275 273 268
308 302 301 303 305 309 306 300 294 296 295 297 301 302 296 284 260 264 277 274 279 281 275 268 275 274 267
312 309 306 303 308 305 303 299 296 295 293 295 296 294 299 297 300 289 277 279 285 285 278 272 272 279 276
Height
796 795 792 789 787 783 779 775 772 769 766 763 759 756 753 749 746 743 740 738 735 732 729 727 724 722 721
791 789 787 784 781 777 773 770 766 762 760 756 753 749 745 742 739 736 733 730 726 724 721 719 717 715 713
785 784 781 779 774 771 767 762 759 756 752 748 744 740 738 735 732 728 724 721 718 715 713 711 708 706 704
782 779 776 773 771 766 760 757 752 748 743 740 736 734 731 727 723 719 715 712 709 707 704 701 699 697 695
778 775 773 769 766 761 756 750 745 741 735 733 729 726 720 717 713 710 706 703 701 697 694 691 689 687 685
775 772 768 765 761 757 751 746 738 734 730 726 723 718 712 708 704 701 698 695 692 688 684 681 679 677 675
770 768 763 760 755 750 746 742 736 730 727 717 716 708 703 699 696 692 688 685 682 679 675 672 669 667 665
765 761 758 753 750 746 741 736 730 726 724 711 707 700 695 690 685 681 678 675 672 669 666 663 660 657 655
760 757 753 750 746 741 736 733 723 718 716 709 698 692 687 680 674 672 670 667 663 659 656 653 650 647 645
753 749 745 741 739 737 733 729 723 711 706 704 696 694 677 671 668 665 660 656 652 649 646 643 640 638 634
747 742 738 735 732 729 726 723 718 711 702 702 691 688 685 668 660 657 652 645 641 637 634 632 630 628 625
743 738 734 729 724 721 718 713 709 702 693 694 687 681 674 664 655 646 641 637 633 627 623 619 617 617 615
739 734 730 724 719 713 709 704 698 691 686 683 678 672 667 659 649 639 632 625 622 617 612 609 606 605 603
736 731 725 720 714 710 704 698 692 680 677 673 669 664 656 650 643 631 624 621 612 607 604 599 595 593 591
733 727 722 716 710 705 700 693 688 677 666 660 657 653 646 641 633 622 615 608 602 598 596 588 582 580 578
728 724 718 712 705 699 695 689 681 672 664 655 648 641 633 626 624 614 605 601 592 588 585 579 568 566 563
724 719 713 708 703 695 689 683 674 667 658 650 644 637 627 616 608 607 599 591 583 577 573 568 561 550 550